Weather in Voronino

Russia / Novgorod Oblast     58°33′56″N   30°35′49″E
temp.,
°C
wind,
m/s
gust,
m/s
humid.,
%
clouds,
%
prec.,
mm/h
press.,
hPa
HPBL,
m
28 september, tue
tue2800:00+6ne27973 0.0 1031147
03:00+5ne24975 0.0 103173
06:00+5ne24975 0.0 103274
09:00+7ene26885 0.0 1032217
12:00+11e346931 0.0 1033810
15:00+11ese3465100 0.0 10331167
18:00+9ese2575100 0.0 1034239
21:00+9ese2470100 0.0 103494
29 september, wed
wed2900:00+8se247985 0.0 1035130
03:00+5se23925 0.0 103655
06:00+4sse22925 0.0 103641
09:00+6sse237826 0.0 1037156
12:00+11sse23595 0.0 1037736
15:00+12sse23545 0.0 10361102
18:00+8ese23765 0.0 103562
21:00+6se22835 0.0 103515
30 september, thu
thu3000:00+5se22885 0.0 103613
03:00+4se229016 0.0 103613
06:00+3sse229220 0.0 103524
09:00+5sse247658 0.0 1035149
12:00+10sse355725 0.0 1035630
15:00+12sse355014 0.0 1033964
18:00+9se247230 0.0 103269
21:00+6sse268221 0.0 103299
1 october, fri
fri100:00+5sse288412 0.0 1032147
03:00+4sse28895 0.0 1032152
06:00+3sse29937 0.0 1031175
09:00+6s398122 0.0 1031268
12:00+10s4866100 0.0 1031455
15:00+9s3874100 0.0 1030410
18:00+8s31075100 0.0 1029480
21:00+8s21077100 0.0 1029398
2 october, sat
sat200:00+7s278726 0.0 1029189
03:00+5s27975 0.0 1028160
06:00+7sse2988100 0.0 1027250
09:00+8sse310795 0.0 1027393
12:00+13s59585 0.0 1026649
15:00+14s59525 0.0 1024974
18:00+11s5126058 0.0 1023631
21:00+10s514675 0.0 1023623